[[{"header":{"parameterUnit":"m.s-1","parameterCategory":1,"la1":30.2991,"la2":30.254,"lo1":-89.0895,"lo2":-89.0444,"dy":0.0017,"dx":0.0017,"nx":28,"ny":28,"refTime":"2025-09-15T03:00:00:Z","depth":0,"parameterNumber":2,"parameterNumberName":"U-component_of_WINDS"},"data":[0,0,0,0,0,0,0,0,0,0,0,0,0,0,0,0,0,0,0,0,0,0,0,0,0,0,0,0,0,0,0,0,0,0,0,0,0,0,0,0,0,0,0,0,0,0,0,0,0,0,0,0,0,0,0,0,0,0,3.2022,3.2023,0,3.2118,3.2119,3.212,3.2065,3.2062,3.2059,3.2057,3.2152,3.2157,3.2162,0,0,0,0,0,0,0,0,0,0,0,0,0,3.179,3.1794,3.2022,3.2023,3.2025,3.2118,3.2119,3.212,3.2065,3.2062,3.2058,3.2055,3.2151,3.2156,3.2163,0,0,0,0,0,0,0,0,0,0,0,0,0,3.1889,3.1796,3.2022,3.2008,3.2008,3.2118,3.2119,3.2121,3.2066,3.2062,3.2058,3.2054,3.2149,3.2156,3.2163,3.2291,0,0,3.2187,3.219,0,0,0,0,0,0,0,0,3.1883,3.1897,3.2009,3.2009,3.2009,3.2075,3.2072,3.2178,3.2067,3.2044,3.2057,3.2052,3.213,3.2139,3.2165,3.2296,3.23,3.2187,3.2192,3.2195,3.2197,0,0,0,0,0,0,0,3.1876,3.1893,3.206,3.2011,3.2011,3.1997,3.2006,3.2092,3.2108,3.2045,3.2042,3.2054,3.2129,3.2158,3.2167,3.2301,3.2187,3.2194,3.2198,3.2201,3.2541,3.2545,0,0,0,0,0,0,3.1871,3.1887,3.2057,3.2063,3.1935,3.2004,3.2015,3.2058,3.2107,3.2111,3.2057,3.2051,3.2147,3.2158,3.217,3.2323,3.2195,3.2202,3.2206,3.2537,3.2542,3.2547,0,0,0,0,0,0,3.1866,3.1886,3.2053,3.1974,3.1994,3.2013,3.2062,3.2062,3.2091,3.2116,3.2118,3.2084,3.2144,3.216,3.2262,3.2325,3.2206,3.2212,3.2531,3.2538,3.2544,3.2629,0,0,0,0,0,0,3.1859,3.1885,3.1934,3.1976,3.1999,3.2144,3.2065,3.2067,3.2105,3.2097,3.2142,3.2145,3.2142,3.2251,3.2269,3.2334,3.2218,3.2526,3.2534,3.2542,3.2621,3.2638,3.2653,0,0,0,0,0,3.1851,3.1954,3.1937,3.1958,3.2061,3.2148,3.2161,3.2156,3.211,3.2159,3.2175,3.2144,3.2316,3.2262,3.2282,3.235,3.2522,3.2532,3.2542,3.2614,3.2635,3.2652,0,0,0,0,0,0,3.1918,3.1959,3.1941,3.206,3.2101,3.2138,3.22,3.2178,3.2232,3.2223,3.2214,3.2225,3.2331,3.2351,3.229,3.2476,3.2411,3.2426,3.2459,3.2479,3.2495,3.2488,3.2225,0,0,0,0,0,3.1947,3.2014,3.2046,3.2148,3.217,3.2182,3.2219,3.2212,3.2254,3.2271,3.2294,3.2335,3.2398,3.244,3.25,3.2624,3.2632,3.2681,3.2697,3.271,3.2722,3.2789,3.281,3.258,3.258,3.258,0,0,3.2006,3.2037,3.208,3.2162,3.2193,3.2263,3.2196,3.2273,3.2324,3.2282,3.238,3.2399,3.2444,3.2558,3.2609,3.2577,3.2788,3.2722,3.2733,3.2738,3.2801,3.2823,3.2843,3.2587,3.2586,3.2584,0,0,3.215,3.2181,3.2269,3.2302,3.235,3.2357,3.2378,3.242,3.2431,3.2529,3.2499,3.256,3.2669,3.2702,3.2734,3.2892,3.2865,3.2912,3.2995,3.306,3.3078,3.3094,3.315,3.317,3.2924,3.2924,3.2925,0,3.2218,3.2322,3.2317,3.2396,3.2433,3.2399,3.2488,3.252,3.2585,3.261,3.2574,3.2711,3.2739,3.286,3.2899,3.2926,3.2949,3.2906,3.3076,3.3092,3.3107,3.316,3.3181,3.293,3.2929,3.2929,3.2928,0,3.2403,3.2476,3.2541,3.2606,3.265,3.2734,3.274,3.2786,3.2776,3.2787,3.2887,3.292,3.2986,3.3014,3.3004,3.3134,3.3113,3.3077,3.3012,3.3134,3.3184,3.3204,3.2937,3.2935,3.2934,3.2932,0,0,3.259,3.2652,3.2676,3.2705,3.2756,3.2812,3.2894,3.2959,3.2998,3.3044,3.3112,3.3206,3.3174,3.3209,3.3203,3.3261,3.3383,3.3217,3.3218,3.3246,3.3528,3.3554,3.3578,3.3366,3.337,3.3373,3.3524,0,3.2737,3.2882,3.2879,3.3013,3.308,3.3049,3.3121,3.316,3.3172,3.3231,3.3244,3.3311,3.3263,3.3284,3.334,3.3357,3.3439,3.3346,3.3429,3.3432,3.3417,3.3604,3.3632,3.3772,3.3543,3.3547,3.3549,0,3.2928,3.2981,3.3122,3.3163,3.3191,3.3256,3.3315,3.3372,3.3415,3.3421,3.3461,3.3446,3.3529,3.3463,3.3576,3.3513,3.3547,3.356,3.3565,3.3572,3.3497,3.3614,3.3817,3.3838,3.358,3.3577,3.3575,0,3.305,3.3157,3.3255,3.3281,3.3332,3.3378,3.3401,3.344,3.348,3.3532,3.3557,3.3618,3.3651,3.3698,3.37,3.3652,3.3815,3.3748,3.3821,3.3821,3.3855,3.3853,3.4065,3.3879,3.3879,3.3879,3.3878,0,3.3214,3.3301,3.331,3.337,3.3467,3.3463,3.3559,3.3578,3.3613,3.3676,3.3653,3.3713,3.3711,3.3772,3.3773,3.3867,3.3882,3.3888,3.3887,3.389,3.3889,3.3911,3.3901,3.3884,3.3883,3.3882,3.3881,0,3.3366,3.3376,3.348,3.3521,3.3533,3.3602,3.3636,3.3693,3.3704,3.3784,3.3803,3.382,3.389,3.3896,3.3977,3.3978,3.4091,3.408,3.4077,3.4075,3.4146,3.4139,3.4379,3.441,3.4205,3.4207,3.4209,0,3.3469,3.3536,3.3583,3.3624,3.365,3.3716,3.3756,3.3756,3.3798,3.3853,3.3904,3.3971,3.4025,3.4138,3.4158,3.4219,3.4209,3.4289,3.4218,3.4218,3.4209,3.4205,3.4211,3.4302,3.4305,3.4306,3.4308,0,3.3652,3.3653,3.3713,3.3775,3.3824,3.3872,3.3917,3.3952,3.3956,3.4005,3.4077,3.4119,3.4202,3.4269,3.433,3.4353,3.4332,3.433,3.435,3.4353,3.4348,3.4351,3.4113,3.4325,3.4323,3.4322,3.4321,3.432,3.3782,3.384,3.3882,3.3949,3.3983,3.4026,3.4082,3.41,3.416,3.4228,3.4224,3.4303,3.4344,3.4424,3.4452,3.4513,3.4486,3.4515,3.4522,3.4529,3.4536,3.4339,3.4524,3.4524,3.4523,3.4523,3.4522,0,3.3963,3.3989,3.4051,3.4115,3.4168,3.4144,3.4192,3.4238,3.4308,3.4349,3.4403,3.4485,3.455,3.4575,3.4639,3.4683,3.4675,3.47,3.4696,3.4701,3.4557,3.4533,3.4705,3.4705,3.4705,3.4705,3.4705,3.4705,3.4063,3.4159,3.4166,3.4278,3.4303,3.4381,3.4411,3.445,3.4483,3.4576,3.463,3.4647,3.4681,3.4747,3.4806,3.4812,3.4836,3.4865,3.4866,3.473,3.4712,3.4694,3.4671,3.487,3.4871,3.5006,3.5007,3.5008]},{"header":{"parameterUnit":"m.s-1","parameterCategory":1,"la1":30.2991,"la2":30.254,"lo1":-89.0895,"lo2":-89.0444,"dy":0.0017,"dx":0.0017,"nx":28,"ny":28,"refTime":"2025-09-15T03:00:00:Z","depth":0,"parameterNumber":3,"parameterNumberName":"V-component_of_WINDS"},"data":[0,0,0,0,0,0,0,0,0,0,0,0,0,0,0,0,0,0,0,0,0,0,0,0,0,0,0,0,0,0,0,0,0,0,0,0,0,0,0,0,0,0,0,0,0,0,0,0,0,0,0,0,0,0,0,0,0,0,-1.2215,-1.2216,0,-1.2269,-1.227,-1.2271,-1.2293,-1.2293,-1.2293,-1.2293,-1.2346,-1.2347,-1.2349,0,0,0,0,0,0,0,0,0,0,0,0,0,-1.213,-1.2131,-1.2215,-1.2216,-1.2217,-1.2269,-1.227,-1.2271,-1.2293,-1.2293,-1.2293,-1.2293,-1.2345,-1.2347,-1.2349,0,0,0,0,0,0,0,0,0,0,0,0,0,-1.2174,-1.2132,-1.2215,-1.2234,-1.2237,-1.2269,-1.227,-1.2271,-1.2293,-1.2293,-1.2293,-1.2293,-1.2345,-1.2347,-1.2349,-1.2366,0,0,-1.2356,-1.2357,0,0,0,0,0,0,0,0,-1.2171,-1.2177,-1.2231,-1.2233,-1.2236,-1.2275,-1.2259,-1.2303,-1.2293,-1.2272,-1.2293,-1.2293,-1.2322,-1.2326,-1.2337,-1.2369,-1.2371,-1.2356,-1.2358,-1.2359,-1.2359,0,0,0,0,0,0,0,-1.2168,-1.2175,-1.2237,-1.2232,-1.2235,-1.224,-1.2246,-1.2268,-1.2297,-1.2274,-1.2275,-1.2282,-1.2323,-1.2334,-1.2338,-1.2372,-1.2356,-1.2358,-1.236,-1.2361,-1.2421,-1.2421,0,0,0,0,0,0,-1.2162,-1.2172,-1.2235,-1.2238,-1.2202,-1.2241,-1.2248,-1.2262,-1.2297,-1.2302,-1.2282,-1.2282,-1.2331,-1.2335,-1.234,-1.2363,-1.2359,-1.2361,-1.2362,-1.2421,-1.2421,-1.2421,0,0,0,0,0,0,-1.216,-1.2168,-1.2233,-1.2206,-1.2214,-1.2243,-1.2259,-1.2263,-1.2274,-1.2303,-1.2308,-1.2288,-1.2331,-1.2337,-1.236,-1.2365,-1.2362,-1.2364,-1.242,-1.2421,-1.2421,-1.2407,0,0,0,0,0,0,-1.2158,-1.2167,-1.2174,-1.2206,-1.2216,-1.2252,-1.2259,-1.2264,-1.2278,-1.228,-1.231,-1.2315,-1.2331,-1.2356,-1.2362,-1.2368,-1.2366,-1.242,-1.2421,-1.2421,-1.2407,-1.2407,-1.2407,0,0,0,0,0,-1.2155,-1.2167,-1.2174,-1.2182,-1.2225,-1.2252,-1.2258,-1.2277,-1.2279,-1.2286,-1.2304,-1.2314,-1.2363,-1.2359,-1.2365,-1.2371,-1.242,-1.242,-1.2421,-1.2408,-1.2407,-1.2407,0,0,0,0,0,0,-1.2134,-1.2172,-1.218,-1.2203,-1.2225,-1.2256,-1.2266,-1.2276,-1.2297,-1.2297,-1.232,-1.2326,-1.2347,-1.2362,-1.2356,-1.239,-1.2392,-1.2394,-1.238,-1.238,-1.238,-1.2375,-1.2367,0,0,0,0,0,-1.2133,-1.2152,-1.2184,-1.2201,-1.2212,-1.2237,-1.2249,-1.2262,-1.2285,-1.2294,-1.2314,-1.2335,-1.2356,-1.2369,-1.2389,-1.241,-1.2417,-1.2418,-1.2417,-1.2417,-1.2418,-1.2431,-1.2432,-1.2423,-1.2423,-1.2423,0,0,-1.2129,-1.2152,-1.2163,-1.2198,-1.2216,-1.2235,-1.2244,-1.2264,-1.2278,-1.2297,-1.232,-1.2336,-1.2361,-1.2383,-1.2394,-1.2396,-1.2422,-1.2418,-1.2417,-1.2419,-1.2431,-1.2432,-1.2433,-1.2424,-1.2424,-1.2423,0,0,-1.2133,-1.2152,-1.2169,-1.2187,-1.2215,-1.2232,-1.2236,-1.2266,-1.2278,-1.2302,-1.2316,-1.2333,-1.2368,-1.2385,-1.2399,-1.241,-1.2419,-1.2416,-1.2414,-1.2426,-1.2427,-1.2427,-1.2431,-1.2433,-1.2417,-1.2417,-1.2417,0,-1.2124,-1.2155,-1.2176,-1.2196,-1.221,-1.2229,-1.2246,-1.2263,-1.2295,-1.2305,-1.2307,-1.2351,-1.2369,-1.2396,-1.2399,-1.2409,-1.2414,-1.2412,-1.2425,-1.2426,-1.2427,-1.2431,-1.2432,-1.2416,-1.2416,-1.2416,-1.2416,0,-1.2144,-1.2164,-1.2175,-1.2207,-1.2223,-1.2241,-1.2265,-1.2278,-1.229,-1.2307,-1.2331,-1.2354,-1.2379,-1.2386,-1.2398,-1.2415,-1.2415,-1.2421,-1.2424,-1.2427,-1.2431,-1.2433,-1.2415,-1.2416,-1.2416,-1.2416,0,0,-1.2135,-1.218,-1.2183,-1.2198,-1.223,-1.2247,-1.2266,-1.2291,-1.2303,-1.2325,-1.2341,-1.237,-1.2376,-1.2391,-1.2405,-1.2415,-1.2423,-1.242,-1.2421,-1.2419,-1.2444,-1.2439,-1.2441,-1.243,-1.243,-1.243,-1.2442,0,-1.2143,-1.2179,-1.2199,-1.2226,-1.2246,-1.2264,-1.228,-1.2302,-1.2318,-1.2336,-1.2354,-1.2375,-1.238,-1.239,-1.2401,-1.242,-1.2428,-1.2419,-1.2445,-1.2445,-1.2438,-1.2443,-1.2438,-1.2448,-1.2443,-1.2444,-1.2444,0,-1.2157,-1.218,-1.2209,-1.224,-1.2249,-1.2263,-1.2289,-1.2307,-1.2331,-1.2342,-1.236,-1.2373,-1.2394,-1.2395,-1.2424,-1.2417,-1.2429,-1.244,-1.2441,-1.2444,-1.2445,-1.2446,-1.2451,-1.2453,-1.2447,-1.2447,-1.2446,0,-1.2148,-1.2186,-1.2209,-1.2221,-1.2257,-1.2267,-1.2283,-1.2307,-1.2322,-1.2344,-1.2353,-1.2377,-1.239,-1.2409,-1.2428,-1.2427,-1.2455,-1.2458,-1.2464,-1.2464,-1.2469,-1.2468,-1.2476,-1.2477,-1.2477,-1.2477,-1.2477,0,-1.2155,-1.2172,-1.2205,-1.2219,-1.2239,-1.2262,-1.2281,-1.2297,-1.2319,-1.2336,-1.2353,-1.2369,-1.2394,-1.2413,-1.2429,-1.245,-1.2456,-1.2465,-1.2469,-1.2463,-1.2462,-1.2471,-1.2471,-1.2477,-1.2477,-1.2477,-1.2477,0,-1.2149,-1.2171,-1.2197,-1.223,-1.2238,-1.2252,-1.2279,-1.2293,-1.2311,-1.2332,-1.2338,-1.2365,-1.2388,-1.241,-1.244,-1.2451,-1.2472,-1.2477,-1.2464,-1.2466,-1.2472,-1.2471,-1.2485,-1.2488,-1.2487,-1.2487,-1.2487,0,-1.2151,-1.2165,-1.22,-1.2213,-1.2228,-1.2249,-1.2264,-1.2287,-1.2302,-1.2331,-1.2342,-1.2366,-1.2387,-1.2423,-1.2445,-1.2468,-1.2474,-1.2478,-1.2478,-1.2472,-1.2474,-1.2473,-1.2475,-1.2477,-1.2477,-1.2477,-1.2477,0,-1.2154,-1.2165,-1.2186,-1.2212,-1.223,-1.2251,-1.2272,-1.2282,-1.2309,-1.2325,-1.2349,-1.2365,-1.2397,-1.2421,-1.2447,-1.2462,-1.2474,-1.2477,-1.2479,-1.2474,-1.2466,-1.247,-1.2463,-1.2476,-1.2476,-1.2476,-1.2476,-1.2476,-1.2152,-1.2166,-1.2192,-1.2216,-1.2234,-1.2254,-1.2269,-1.2289,-1.231,-1.2338,-1.235,-1.2374,-1.2399,-1.2435,-1.2451,-1.247,-1.2473,-1.2477,-1.2478,-1.2478,-1.2477,-1.2463,-1.2475,-1.2475,-1.2475,-1.2475,-1.2475,0,-1.2156,-1.2174,-1.2196,-1.2226,-1.2244,-1.2254,-1.2279,-1.2293,-1.2315,-1.2337,-1.2358,-1.2385,-1.2409,-1.2433,-1.2458,-1.2469,-1.2475,-1.2475,-1.2474,-1.2477,-1.2473,-1.2468,-1.2469,-1.2469,-1.2469,-1.2469,-1.2469,-1.2469,-1.216,-1.2183,-1.2197,-1.223,-1.2248,-1.2272,-1.2286,-1.2304,-1.2322,-1.2353,-1.2373,-1.2388,-1.2412,-1.2438,-1.246,-1.2467,-1.2475,-1.2474,-1.2481,-1.2477,-1.2477,-1.2478,-1.2473,-1.2475,-1.2475,-1.2484,-1.2484,-1.2484]}]]